OE3UKW Weather Reports


Display with metric or nautical units.
time (UTC)temp
F
wind
direction
speed
MPH
gust
MPH
rain 1hr
in
rain 24hr
in
rain mn
in
humidity
%
barometer
mb
20260904175113 83 200 3.0 6.0 0.00 0.00 0.00 34 1013.2
20260904174114 84 209 4.0 5.0 0.00 0.00 0.00 32 1013.1
20260904173113 85 178 6.0 8.0 0.00 0.00 0.00 31 1013.3
20260904172113 85 171 4.0 7.0 0.00 0.00 0.00 30 1013.3
20260904171113 86 186 6.0 8.0 0.00 0.00 0.00 29 1013.5
20260904170113 87 193 6.0 12.0 0.00 0.00 0.00 26 1013.7
20260904165124 87 238 4.0 8.0 0.00 0.00 0.00 26 1013.7
20260904164113 87 232 4.0 6.0 0.00 0.00 0.00 25 1013.8
20260904163113 88 238 4.0 8.0 0.00 0.00 0.00 25 1013.9
20260904162113 89 221 7.0 13.0 0.00 0.00 0.00 24 1013.9
20260904161113 89 231 4.0 10.0 0.00 0.00 0.00 24 1014.0
20260904160113 89 245 7.0 12.0 0.00 0.00 0.00 24 1014.3
20260904155113 89 223 7.0 16.0 0.00 0.00 0.00 24 1014.3
20260904154113 89 225 6.0 11.0 0.00 0.00 0.00 24 1014.5
20260904153113 89 237 12.0 16.0 0.00 0.00 0.00 24 1014.7
20260904152113 89 231 9.0 18.0 0.00 0.00 0.00 24 1014.7
20260904151113 89 237 14.0 19.0 0.00 0.00 0.00 24 1014.9
20260904150112 89 215 14.0 20.0 0.00 0.00 0.00 24 1015.0
20260904145112 89 233 12.0 20.0 0.00 0.00 0.00 25 1015.2
20260904144113 89 215 11.0 18.0 0.00 0.00 0.00 25 1015.5
20260904143113 89 242 13.0 22.0 0.00 0.00 0.00 25 1015.6
20260904142112 89 240 11.0 19.0 0.00 0.00 0.00 26 1015.8
20260904141121 89 225 8.0 14.0 0.00 0.00 0.00 26 1015.8
20260904140112 89 211 9.0 15.0 0.00 0.00 0.00 26 1016.0
20260904135112 89 241 9.0 19.0 0.00 0.00 0.00 26 1016.2
20260904134112 89 234 11.0 17.0 0.00 0.00 0.00 26 1016.2
20260904133112 89 225 10.0 16.0 0.00 0.00 0.00 26 1016.4
20260904132112 89 241 11.0 18.0 0.00 0.00 0.00 27 1016.6
20260904131112 89 235 10.0 17.0 0.00 0.00 0.00 27 1016.8
20260904130112 89 229 9.0 16.0 0.00 0.00 0.00 28 1016.8
20260904125112 88 231 15.0 20.0 0.00 0.00 0.00 27 1017.0
20260904124112 88 234 16.0 19.0 0.00 0.00 0.00 28 1017.0
20260904123112 87 244 14.0 21.0 0.00 0.00 0.00 29 1017.1
20260904122112 87 244 10.0 16.0 0.00 0.00 0.00 29 1017.2
20260904121112 88 240 17.0 22.0 0.00 0.00 0.00 29 1017.4
20260904120112 87 224 10.0 16.0 0.00 0.00 0.00 28 1017.4
20260904115112 87 279 11.0 19.0 0.00 0.00 0.00 29 1017.5
20260904114112 87 248 9.0 18.0 0.00 0.00 0.00 31 1017.6
20260904113112 87 326 10.0 15.0 0.00 0.00 0.00 29 1017.6
20260904112112 87 302 5.0 17.0 0.00 0.00 0.00 30 1017.8
20260904111112 88 281 7.0 18.0 0.00 0.00 0.00 31 1018.1
20260904110112 87 259 7.0 15.0 0.00 0.00 0.00 33 1018.2
20260904105112 85 229 9.0 21.0 0.00 0.00 0.00 34 1018.4
20260904104112 86 264 10.0 14.0 0.00 0.00 0.00 33 1018.6
20260904103112 86 237 12.0 18.0 0.00 0.00 0.00 34 1019.0
20260904102112 85 265 11.0 25.0 0.00 0.00 0.00 35 1019.2
20260904101112 84 261 11.0 19.0 0.00 0.00 0.00 36 1019.4
20260904100111 83 242 15.0 19.0 0.00 0.00 0.00 36 1019.5
20260904095112 84 234 11.0 18.0 0.00 0.00 0.00 36 1019.7
20260904094112 83 294 4.0 12.0 0.00 0.00 0.00 38 1019.8
20260904093112 82 289 11.0 17.0 0.00 0.00 0.00 38 1019.9
20260904092113 81 270 6.0 12.0 0.00 0.00 0.00 38 1019.9
20260904091112 81 235 13.0 18.0 0.00 0.00 0.00 39 1020.0
20260904090111 81 225 14.0 15.0 0.00 0.00 0.00 39 1020.2
20260904085111 80 249 11.0 16.0 0.00 0.00 0.00 41 1020.3
20260904084111 80 231 12.0 15.0 0.00 0.00 0.00 40 1020.4
20260904083111 78 232 9.0 17.0 0.00 0.00 0.00 43 1020.5
20260904082111 77 244 12.0 19.0 0.00 0.00 0.00 43 1020.4
20260904081111 76 251 9.0 17.0 0.00 0.00 0.00 44 1020.6
20260904080111 76 234 8.0 14.0 0.00 0.00 0.00 44 1020.5
20260904075111 76 231 8.0 14.0 0.00 0.00 0.00 44 1020.4
20260904074111 76 258 9.0 16.0 0.00 0.00 0.00 44 1020.4
20260904073111 76 264 11.0 15.0 0.00 0.00 0.00 45 1020.3
20260904072111 76 245 12.0 17.0 0.00 0.00 0.00 44 1020.5
20260904071111 76 228 9.0 13.0 0.00 0.00 0.00 44 1020.5
20260904070111 76 248 6.0 10.0 0.00 0.00 0.00 45 1020.6
20260904065111 75 230 11.0 13.0 0.00 0.00 0.00 46 1020.4
20260904064111 74 288 5.0 11.0 0.00 0.00 0.00 47 1020.3
20260904063111 73 246 8.0 13.0 0.00 0.00 0.00 48 1020.4
20260904062111 72 232 7.0 13.0 0.00 0.00 0.00 51 1020.5
20260904061111 71 254 8.0 12.0 0.00 0.00 0.00 50 1020.6
20260904060111 71 232 5.0 9.0 0.00 0.00 0.00 51 1020.6
20260904055111 71 251 8.0 12.0 0.00 0.00 0.00 51 1020.4
20260904054111 71 248 8.0 12.0 0.00 0.00 0.00 51 1020.4
20260904053111 71 239 8.0 13.0 0.00 0.00 0.00 52 1020.1
20260904052111 69 241 8.0 12.0 0.00 0.00 0.00 54 1020.3
20260904051110 69 240 7.0 13.0 0.00 0.00 0.00 54 1020.2
20260904050110 69 246 6.0 13.0 0.00 0.00 0.00 54 1020.3
20260904045111 69 240 8.0 11.0 0.00 0.00 0.00 54 1020.3
20260904044111 69 268 8.0 12.0 0.00 0.00 0.00 53 1020.2
20260904043111 69 246 8.0 10.0 0.00 0.00 0.00 53 1020.3
20260904042110 69 250 7.0 13.0 0.00 0.00 0.00 53 1020.4
20260904041111 69 231 7.0 12.0 0.00 0.00 0.00 53 1020.3
20260904040110 69 241 10.0 13.0 0.00 0.00 0.00 53 1020.4
20260904035110 69 245 6.0 12.0 0.00 0.00 0.00 54 1020.4
20260904034110 69 248 9.0 12.0 0.00 0.00 0.00 54 1020.2
20260904033110 69 242 7.0 11.0 0.00 0.00 0.00 54 1020.3
20260904032110 69 236 8.0 11.0 0.00 0.00 0.00 54 1020.3
20260904031110 68 250 8.0 11.0 0.00 0.00 0.00 55 1020.2
20260904030110 68 265 6.0 11.0 0.00 0.00 0.00 55 1020.3
20260904025110 68 239 5.0 10.0 0.00 0.00 0.00 56 1020.2
20260904024111 68 250 2.0 8.0 0.00 0.00 0.00 56 1020.4
20260904023110 67 272 2.0 4.0 0.00 0.00 0.00 56 1020.5
20260904022110 67 224 2.0 4.0 0.00 0.00 0.00 56 1020.3
20260904021110 68 223 3.0 5.0 0.00 0.00 0.00 55 1020.4
20260904020110 68 244 2.0 7.0 0.00 0.00 0.00 55 1020.2
20260904015110 68 237 3.0 8.0 0.00 0.00 0.00 55 1020.5
20260904014110 68 240 3.0 9.0 0.00 0.00 0.00 54 1020.6
20260904013110 68 231 5.0 10.0 0.00 0.00 0.00 54 1020.4
20260904012110 68 239 8.0 11.0 0.00 0.00 0.00 54 1020.4
20260904011110 68 233 6.0 9.0 0.00 0.00 0.00 54 1020.7
20260904005110 68 251 5.0 10.0 0.00 0.00 0.00 54 1020.8
20260904004110 68 248 5.0 9.0 0.00 0.00 0.00 54 1020.9
20260904003110 68 318 1.0 3.0 0.00 0.00 0.00 54 1021.0
20260904002110 68 236 2.0 4.0 0.00 0.00 0.00 54 1021.1
20260904001110 68 234 5.0 7.0 0.00 0.00 0.00 54 1021.0
20260904000110 67 246 3.0 9.0 0.00 0.00 0.00 54 1021.1
20260903235110 67 250 5.0 8.0 0.00 0.00 0.00 54 1021.1
20260903234110 67 242 4.0 7.0 0.00 0.00 0.00 54 1021.2
20260903233110 67 242 4.0 6.0 0.00 0.00 0.00 54 1021.2
20260903232110 67 272 4.0 8.0 0.00 0.00 0.00 53 1021.2
20260903231110 67 244 5.0 7.0 0.00 0.00 0.00 53 1021.4
20260903230110 67 245 4.0 8.0 0.00 0.00 0.00 51 1021.4
20260903225110 67 248 3.0 8.0 0.00 0.00 0.00 49 1021.2
20260903224110 68 275 2.0 4.0 0.00 0.00 0.00 48 1021.4
20260903223110 69 286 0.0 0.0 0.00 0.00 0.00 46 1021.4
20260903222110 69 286 2.0 3.0 0.00 0.00 0.00 46 1021.3
20260903221110 69 290 3.0 6.0 0.00 0.00 0.00 46 1021.4
20260903220110 69 286 3.0 8.0 0.00 0.00 0.00 46 1021.2
20260903215114 69 306 4.0 11.0 0.00 0.00 0.00 46 1021.5
20260903214113 69 296 8.0 11.0 0.00 0.00 0.00 45 1021.6
20260903213113 69 307 7.0 10.0 0.00 0.00 0.00 45 1021.3
20260903212114 69 283 2.0 5.0 0.00 0.00 0.00 44 1021.2
20260903211113 70 279 3.0 4.0 0.00 0.00 0.00 44 1021.3
20260903210113 70 272 5.0 8.0 0.00 0.00 0.00 43 1021.2
20260903205113 71 282 5.0 10.0 0.00 0.00 0.00 42 1021.2
20260903204113 71 300 3.0 4.0 0.00 0.00 0.00 41 1021.1
20260903203113 72 302 3.0 5.0 0.00 0.00 0.00 40 1020.9
20260903202113 72 327 0.0 0.0 0.00 0.00 0.00 39 1020.9
20260903201113 73 327 0.0 3.0 0.00 0.00 0.00 39 1020.9
20260903200113 73 327 2.0 3.0 0.00 0.00 0.00 38 1020.8
20260903195113 73 329 2.0 5.0 0.00 0.00 0.00 38 1020.8
20260903194113 74 308 2.0 3.0 0.00 0.00 0.00 38 1020.6
20260903193113 74 320 3.0 5.0 0.00 0.00 0.00 38 1020.5
20260903192113 74 300 3.0 3.0 0.00 0.00 0.00 37 1020.4
20260903191113 75 296 2.0 4.0 0.00 0.00 0.00 37 1020.3
20260903190113 75 284 4.0 7.0 0.00 0.00 0.00 37 1020.1
20260903185113 76 290 3.0 7.0 0.00 0.00 0.00 36 1020.1
20260903184113 76 290 4.0 11.0 0.00 0.00 0.00 36 1020.1
20260903183113 76 302 6.0 14.0 0.00 0.00 0.00 36 1019.9
20260903182113 76 275 6.0 10.0 0.00 0.00 0.00 36 1019.7
20260903181113 76 260 10.0 12.0 0.00 0.00 0.00 36 1019.6
20260903180113 76 271 5.0 9.0 0.00 0.00 0.00 36 1019.4